This demonstration page uses our WeatherBlox Daily Observations layout. Learn more.

Left ArrowRight Arrow

41.86663, -103.66717

Hourly Observations for March 9, 2018

Temp ( °F °C ) Dew Point ( °F °C ) Humidity (%) Winds ( mph kmh ) Pressure ( in mb ) Visibility ( mi km ) Precip ( " mm )
12:53 am 00:53 Clear 47 8.3 20 -6.7 34 34 W 15 24 29.71 1006 10 16 N/A
1:53 am 01:53 Clear 36 2.2 20 -6.7 52 52 NW 10 17 29.73 1007 10 16 N/A
2:53 am 02:53 Clear 37 2.8 20 -6.7 50 50 WNW 10 17 29.73 1007 10 16 N/A
3:53 am 03:53 Clear 33 0.6 20 -6.7 58 58 NNW 13 20 29.76 1008 10 16 N/A
4:53 am 04:53 Clear 31 -0.6 20 -6.7 64 64 NW 10 17 29.79 1009 10 16 N/A
5:53 am 05:53 Clear 34 1.1 21 -6.1 59 59 WNW 10 17 29.80 1009 10 16 N/A
6:53 am 06:53 Sunny 36 2.2 23 -5 59 59 NW 10 17 29.82 1010 10 16 N/A
7:53 am 07:53 Sunny 42 5.6 25 -3.9 51 51 WNW 10 17 29.80 1009 10 16 N/A
8:53 am 08:53 Sunny 51 10.6 25 -3.9 36 36 WNW 10 17 29.80 1009 10 16 N/A
9:53 am 09:53 Sunny 57 13.9 23 -5 27 27 WNW 20 31 29.77 1008 10 16 N/A
10:53 am 10:53 Sunny 60 15.6 21 -6.1 22 22 WNW 21 33 29.73 1007 10 16 N/A
11:53 am 11:53 Sunny 62 16.7 18 -7.8 18 18 WNW 17 28 29.72 1007 10 16 N/A
12:53 pm 12:53 Sunny 63 17.2 18 -7.8 17 17 NW 18 30 29.67 1005 10 16 N/A
1:53 pm 13:53 Sunny 64 17.8 14 -10 14 14 WNW 20 31 29.68 1005 10 16 N/A
2:53 pm 14:53 Sunny 64 17.8 17 -8.3 16 16 NW 22 35 29.66 1004 10 16 N/A
3:53 pm 15:53 Sunny 64 17.8 18 -7.8 17 17 NW 17 28 29.66 1004 10 16 N/A
4:53 pm 16:53 Sunny 60 15.6 18 -7.8 19 19 WNW 16 26 29.69 1005 10 16 N/A
5:53 pm 17:53 Sunny 57 13.9 18 -7.8 22 22 WNW 15 24 29.69 1006 10 16 N/A
6:53 pm 18:53 Clear 54 12.2 20 -6.7 26 26 WNW 12 19 29.70 1006 10 16 N/A
7:53 pm 19:53 Clear 51 10.6 21 -6.1 31 31 WNW 8 13 29.70 1006 10 16 N/A
8:53 pm 20:53 Clear 45 7.2 22 -5.6 40 40 WNW 7 11 29.70 1006 10 16 N/A
9:53 pm 21:53 Clear 50 10 20 -6.7 30 30 W 13 20 29.66 1004 10 16 N/A
10:53 pm 22:53 Clear 46 7.8 21 -6.1 37 37 WNW 12 19 29.67 1005 10 16 N/A
11:53 pm 23:53 Clear 44 6.7 22 -5.6 41 41 WNW 12 19 29.68 1005 10 16 N/A

Powered by AerisWeather